Regional Weather Roundup
Issued by NWS Northern Indiana

Home | Current Version | Previous Version | Text Only | Print | Product List | Glossary On
Versions: 1 2 3 4 5 6 7 8 9 10 11 12 13 14 15 16 17 18 19 20 21 22 23 24 25 26 27 28 29 30 31 32 33 34 35 36 37 38 39 40 41 42 43 44 45 46 47 48 49 50
000
ASUS43 KIWX 300900
RWRIWX

KIWX WEATHER ROUNDUP
NATIONAL WEATHER SERVICE NORTHERN INDIANA
500 AM EDT WED JUL 30 2014

NOTE: "FAIR" INDICATES FEW OR NO CLOUDS BELOW 12,000 FEET WITH NO
SIGNIFICANT WEATHER AND/OR OBSTRUCTIONS TO VISIBILITY.

* THESE STATIONS ARE NOT UNDER NWS QUALITY CONTROL. THEY ALSO MAY NOT
  REPORT WEATHER SUCH AS PRECIPITATION OR FOG.

INZ001>027-301000-
NORTHERN INDIANA

CITY           SKY/WX    TMP DP  RH WIND       PRES   REMARKS
GARY*          PTCLDY    60  57  91 CALM      30.02R
VALPARAISO     CLEAR     58  57  97 W7        30.01S
KNOX*          CLEAR     55  53  92 CALM      30.00S
SOUTH BEND     CLEAR     58  55  90 CALM      30.01R
GOSHEN         CLOUDY    60  58  92 SW7       30.00R
MONTICELLO*    CLEAR     56  55  97 CALM      30.00F
WARSAW*        CLOUDY    59  57  94 W3        30.01R
ANGOLA*        CLOUDY    57  48  72 CALM      29.99S
FORT WAYNE     MOCLDY    58  57  97 SW3       30.01F FOG
PERU/GRISSOM   CLEAR     55  55 100 SW7       30.00F

$$
INZ028>050-301000-
CENTRAL INDIANA

CITY           SKY/WX    TMP DP  RH WIND       PRES   REMARKS
LAFAYETTE      RAIN      58  58 100 SW3       30.02S
KOKOMO*        CLEAR     57  55  94 SW7       30.01F
MUNCIE*        CLEAR     59  56  89 SW8       30.02F
INDIANAPOLIS   CLEAR     59  57  93 SW9       30.02F

$$
MIZ043>046-050>051-056>058-064>065-071>073-077>080-301000-
SOUTHWEST LOWER MICHIGAN

CITY           SKY/WX    TMP DP  RH WIND       PRES   REMARKS
BATTLE CREEK   CLEAR     57  54  89 SW3       29.99S
BENTON HARBOR  CLEAR     54  54 100 CALM      30.00R
COLDWATER*     MOCLDY    57  56  95 CALM      29.99S
HILLSDALE*     MOCLDY    57  57  99 CALM      29.99R
HOLLAND        CLEAR     56  53  90 CALM      29.99S
GRAND RAPIDS   CLEAR     58  56  93 NW5       29.98S
KALAMAZOO      CLEAR     57  55  93 CALM      29.99R FOG
STURGIS*       MOCLDY    57  57 100 CALM      29.99R
THREE RIVERS*  FAIR      57  56  97 CALM      30.00R

$$
OHZ001>008-015>018-024>025-301000-
NORTHWEST OHIO

CITY           SKY/WX    TMP DP  RH WIND       PRES   REMARKS
DEFIANCE       LGT RAIN  59  57  93 SW5       30.01R
FINDLAY        PTCLDY    58  56  93 SW5       30.00R
TOLEDO EXPRESS PTCLDY    57  55  93 SW5       29.98S
TOLEDO METCALF PTCLDY    58  54  86 SW3       29.99S
LIMA           CLEAR     57  55  93 S3        30.01S

$$
&&


USA.gov is the U.S. government's official web portal to all federal, state and local government web resources and services.